Member area
Imprimable
Maredsous, 19/12/2014, BEL - Maredsous Christmas Night Trail
List of reports > 30km - Result
Search: Page: [1]
109 Entries
 
Complains are not accepted anymore. Results are final.
PlaceNrNameAgeNATTeamRealTimeTkmMoy.ScrPtsCity
1.584MAGNEE Fabian41BELTEAM TRAIL SALOMON BELGIQ2:19:372:20:084:41 12.851CHEVRON
2.594PASQUE Fabrice38BELTEAM TRAIL SALOMON BELGIU2:24:262:24:554:50 12.422COUILLET
3.644GROFFIER JérômeBEL2:24:562:25:274:51 12.383
4.604SAGGIORATO Samuel37BELMP STUDIO FITNESS2:33:042:33:365:08 11.724AYE
5.504BAUDOIN Philippe44BELARCH2:37:522:38:245:17 11.365MIÉCRET
6.529DATTOLI Matteo55ITA2:37:512:38:255:17 11.366HUY
7.534DELCHAMBRE Frédéric41BELLES FOULÉES DU PLAISIR2:38:542:39:265:19 11.297WANZE
8.554GROSDENT Jonathan33BELTEAM 332:40:002:41:065:23 11.178WELKENRAEDT
9.661DERAVET BernardBEL2:41:512:42:355:26 11.079
10.501ALBERT Mika29BELTRAKKS2:48:412:49:425:40 10.6110LASNE
11.513BOURGUIGNON Laurent43BELBATIFER TRIATHLON2:50:512:51:225:43 10.5011FREUX
12.646MOTCH RaphaelBEL2:51:012:51:305:43 10.5012
13.581DE DECKER Christophe41BELCJHSH2:50:222:51:345:44 10.4913
14.583MAGINELLE Stef41BEL2:51:132:52:265:45 10.4414KAMPENHOUT
15.511BODEUX Jean-Luc38BEL2:52:072:52:395:46 10.4315TINTIGNY
16.628ZANIER Laurent39BELTEAM MADRES2:54:282:55:075:51 10.2816MAURAGE
17.556HANCE Thibaut31BEL2:55:162:55:545:52 10.2317BELGRADE
18.579LHERMITTE Igor33BEL2:55:122:56:435:54 10.1918BAILLONVILLE
19.625WIART Yves47BEL2:56:192:56:565:54 10.1719DURNAL
20.552GRIMARD Bruno25BEL2:58:122:59:065:59 10.0520AISEAU
21.668VAN DEN BROECK Tim31BEL2:59:162:59:496:00 10.0121
22.639DEPAYE NicolasBEL2:59:493:00:356:02 9.9722
23.533DELAIT Olivier47BEL3:00:223:00:576:02 9.9523BRAS-HAUT
24.589MIKÓCZI Géza36HUNVKE-NELSON3:00:453:01:336:04 9.9224BRUXELLES
25.580LICHTHERTE Eric40BEL3:01:023:01:376:04 9.9125HULSONNIAUX
26.576LEFEBVRE Thibault26BEL3:01:503:02:456:06 9.8526STAVE
27.551GRÉGOIRE Vincent40BEL3:02:323:03:066:07 9.8327ON
28.558HEYNS Christophe41BELPAXX CYCLING/SCARABEE SPO3:04:563:05:506:12 9.6928HEERS
29.531DECOUVREUR Bernard41BELTCW3:05:143:06:046:13 9.6729BLANMONT
30.524COSSEE Emmanuel40BEL3:05:123:06:046:13 9.6730TERVUREN
31.557HARDY Eric52BEL3:05:273:06:456:14 9.6431SALLES
32.520CLAESSENS Olivier39BEL3:06:193:07:216:15 9.6132BIEZ
33.573LECOMTE Lionel46BELUN ORVAL DE RETARD3:07:443:08:166:17 9.5633TINTIGNY
34.560ISTACE Vincent41BELARCH3:08:123:09:436:20 9.4934ACHET
35.615VAN DER LINDEN Paul65BELRC NAMUR3:09:103:09:436:20 9.4935MALONNE
36.549GRANVILLE Dimitri41BEL-3:10:223:11:096:23 9.4236HEPPIGNIES
37.611VANDAMME Dieter33BELDAPALO3:11:323:13:076:27 9.3237GELUWE
38.590MOINIÉ Gil29BELDECATHLON3:12:473:13:596:28 9.2838LOBBES
39.647MUNAUT JeremyBEL3:15:243:17:006:34 9.1439
40.539DEVEZEAUX DE LAVERGN Jean-Marie27BELBTC3:16:463:17:366:36 9.1140ETTERBEEK
41.617VANESSE Christophe32BELBIKERS FOR LIFE3:19:073:20:186:41 8.9942VEDRIN
42.616VAN DE VEN Bart33BEL3:19:483:20:516:42 8.9643NIVELLES
43.621VERHEYEN Cedric36BELTRAKKS3:20:383:21:236:43 8.9444BEERSEL
44.598PHILIPPART Eric49BEL3:19:543:21:276:43 8.9445CÉROUX-MOUSTY
45.597PETITPAS Christophe42FRAK-RAID ARDENNES3:19:543:21:296:43 8.9346BOGNY SUR MEUSE
46.526CULOT Jean-Marc50BELJC.ESTINNES3:20:293:21:346:44 8.9347LA HESTRE
47.630BERTHET AlainBEL3:20:483:21:506:44 8.9248
48.634CHAUSSIER GregoryBEL3:21:203:22:026:45 8.9149
49.631BONTEMPS LucBEL3:20:333:22:196:45 8.9050
50.544FERRIERE Benoit52BELJE TRAIL À WANZE3:21:263:22:236:45 8.8951WANZE
51.641FOULON BastienBEL3:22:443:23:406:48 8.8452
52.613VANDEPOELE Damien50BELGAG GEMBLOUX3:22:233:23:456:48 8.8353SPY
53.563JOBE Bernard40BELMDS2015.BE3:22:313:23:486:48 8.8354LIEGE
54.657TIMMERMANS GaetanBEL3:23:103:24:216:49 8.8155
55.658TOUSSAINT MaximeBEL3:24:433:25:546:52 8.7456
56.518CHEVALIER Fabian32BELLES MOTIVÉS3:25:303:26:146:53 8.7357BIOUL
57.603SAELMACKERS Michel57BELLES MOTIVÉS DE METTET3:25:333:26:166:53 8.7359BIESME
58.525CRETELEINE Roland53BELLES MOTIVES DE METTET3:25:323:26:166:53 8.7360FLORENNES
59.555GRUMERMER Christian37FRA3:25:113:26:176:53 8.7361HASNON
60.599PILATE Yannik35BEL3:26:123:27:086:55 8.6962FRANIÈRE
61.546GILLANT Michel54BELSANS3:26:033:27:156:55 8.6963MONS
62.648PAJO BenjaminBEL3:26:043:27:156:55 8.6964
63.528DASY Jean-Francois35BEL3:27:433:29:176:59 8.6065ON
64.622VERSTRAETE Eric36NLD3:29:173:30:237:01 8.5666HEEL
65.609TRULLEMANS Jean-Luc41BELNSTT3:32:253:34:097:09 8.4167LIMAL
66.562JENARD Greg31BELMADRES3:32:423:34:227:09 8.4068DOUR
67.575LEDOUX Thierry45BELARCH CINEY3:33:493:35:357:12 8.3569HAVELANGE
68.553GROLLINGER Thierry49BELARCH3:33:493:35:357:12 8.3570BONSIN
69.538DEMEUR Laurent35BELCABW3:34:443:35:487:12 8.3471BAULERS
70.624WATTIAUX Coli33BELCABW TRAIL3:34:453:35:497:12 8.3472BAULERS
71.610VALENTE Bruno42FRAK-RAID ARDENNES3:34:413:36:167:13 8.3273BOGNY SUR MEUSE
72.537DELPEUT Philippe42FRAK-RAID ARDENNES3:34:433:36:187:13 8.3274BOGNY SUR MEUSE
73.586MARÉCHAL Philippe40BELJOGGING ET NATURE PRESLES3:34:423:36:337:14 8.3175LE ROUX
74.664LINDEKENS Bertrand48BEL3:37:173:38:387:18 8.2376MAISON SAINT-GERARD
75.627ZUYDERHOFF Pierre29BEL3:41:213:42:227:25 8.0978FAULX LES TOMBES
76.567LAEREMANS Frank48BEL3:42:263:43:107:27 8.0779DURNAL
77.593OLIVIER Gérald35BEL3:42:093:43:127:27 8.0680NIVELLES
78.516CALLEEUW Stéphane48BEL3:43:263:44:467:30 8.0181BAULET
79.507BEELEN Daniel48BEL3:43:263:44:467:30 8.0182ROLOUX
80.536DELMOTTE Jean-Yves50BEL3:43:263:44:467:30 8.0183ROUX
81.638DEMOITIE ThibautBEL3:45:293:46:407:34 7.9484
82.623VERSTRAETE Peter45NLD3:47:033:47:507:36 7.9085HEEL
83.620VAN NUFFELEN Geoffrey42BEL3:47:293:48:487:38 7.8786DAUSSOIS
84.572LECHIEN Xavier46BEL3:48:123:49:437:40 7.8487IZIER
85.591NEMANN Bruno32BELRCNAMUR3:49:453:51:207:43 7.7888WARTET
86.635CHRISTOPHE CedricBEL3:57:283:58:397:58 7.5489
87.656THYS FredericBEL3:57:293:58:417:58 7.5490
88.506BEDORET Geoffrey25BELCLERMONTOISE4:02:104:03:278:07 7.3991CLERMONT
89.605SOREL Renaud30BEL4:02:144:03:298:07 7.3992NIVELLES
90.606STUBENER Marc44BEL4:04:134:06:208:13 7.3193BIESME
91.601ROMAIN Rudi47BEL4:04:144:06:218:13 7.3194WARNANT
92.547GILLARD Laurent47BEL4:05:434:07:098:15 7.2895ANHÉE
93.559HOSSELET Jean-Yves44BEL4:05:434:07:098:15 7.2896ANHÉE
94.523CORNET Pascal42BELSLOW & GLORIUS4:07:064:08:548:18 7.2397THOREMBAIS-SAINT-TROND
95.614VANDEPUTTE Geoffroy45BEL4:11:204:12:168:25 7.1498BONHEIDEN
96.540DEWEZ Bertrand31BEL4:11:204:12:178:25 7.1499BRUXELLES
97.541DEWEZ Geoffroy35BEL4:11:204:12:178:25 7.14100BRUXELLES
98.602ROSILLON Dominique57BELARCH4:11:144:13:008:26 7.11101SOREE
99.651RODIA Frederic41BELPOINTS DE GRAINS4:12:224:13:068:27 7.11102FRAMERIES
100.640FLAMME XavierBEL4:15:144:16:488:34 7.01103
101.12BAIJOT Eric48BELARCH4:16:574:18:448:38 6.96104DINANT
102.592NONET Ludwig42BEL4:18:544:19:438:40 6.93105BOIS DE VILLERS
103.612VANDENWEGHE Juan35BELDAPALO4:21:174:22:528:46 6.85106MENEN
104.532DEGRAEVE Kenny29BELDAPALO4:21:194:22:528:46 6.85107DADIZELE
105.566LACAILLE Guy62BELBTC4:26:334:27:358:56 6.73108NIVELLES
106.561JANDRAIN Sébastien35BEL4:26:394:27:358:56 6.731095080
107.545GASTRIN Jeannot55FRA4:51:594:53:369:48 6.13110ANNOEULLIN
DSQ521COOREVITS Pieter32BELCOOREVITA2:08:272:09:16GENTBRUGGE
DNF515BROUILLARD François40BELMADRESFRAMERIES
DNF: did not finish; DSQ: disqualified; Speed in km/h
Page: [1]